User: anonymous   Login
Location: Carthage
(33.8834°N, 106.6595°W)
Time: 14:09:40
(UTC+00:00)
Language:

Cosmos 1869 - Orbit

View from above orbital plane
View from above orbital plane
View from above satellite
View from above satellite

Ground track
Ground track

The orbit is defined by the following mean orbital elements,

1 18214U          26103.12506375 +.00000000 +00000-0 +17747-3 0 00009
2 18214  82.5124 166.8398 0015859 297.2312  62.7316 15.36240336    03
Epoch (UTC): 13 April 2026 03:00:05
Eccentricity: 0.0015859
inclination: 82.5124°
perigee height: 446 km
apogee height: 468 km
right ascension of ascending node: 166.8398°
argument of perigee: 297.2312°
revolutions per day: 15.36240336
mean anomaly at epoch: 62.7316°

The dashed part of the orbit path shows where the satellite is in the earth's shadow,  

DLR